Notices

What's New in latest Release from April 7th, 2021:

- Updated Glossary, including Speed of Maximum Gust, and Total Hourly Precipitation

- Updated national and regional climate services offices contacts and prices information

- Addition of station inventory lists for 1981-2010, 1971-2000, and 1961-1990 Normals.

If you haven't already, please take our survey and provide feedback about our website: https://eccc.sondage-survey.ca/f/LanguageSelection.aspx?s=442ca660-fcf1-47c0-95a9-59707d6fd709

Hourly Data Report for December 13, 2004

SHERBROOKE A
QUEBEC

45°26'00.000" N
71°41'00.000" W
241.40 m
7028124
71610
YSC

Download Data

Hourly Data (December 2004)
Hourly Data Report for December 13, 2004
TIME
LST
Temp Definition
°C
Dew Point Definition
°C
Rel Hum Definition
%
Precip. Amount Definition
mm

Wind Dir Definition
10's deg

Wind Spd Definition
km/h
Visibility Definition
km
Stn Press Definition
kPa
Hmdx Definition


Wind Chill Definition


Weather Definition


00:00 -6.2 -8.2 86   5 4 9.7 97.15   -8  
01:00 -6.0 -7.9 86   8 4 15.0 97.11   -8  
02:00 -5.8 -7.8 86   6 6 15.0 97.07   -9  
03:00 -5.7 -7.7 86   11 4 15.0 97.00   -8  
04:00 -5.7 -7.5 87   6 7 2.4 96.97   -9 Snow
05:00 -5.3 -7.1 87     0 1.6 96.94     Snow
06:00 -5.2 -6.9 88   6 6 2.7 96.92   -8 Snow
07:00 -5.1 -6.7 89   6 6 8.0 96.89   -8 Snow
08:00 -4.8 -6.5 88   6 4 19.3 96.90   -7 Cloudy
09:00 -3.9 -5.5 89   5 4 12.9 96.91   -6 Snow Showers
10:00 -3.4 -5.1 88   8 4 12.9 96.94   -5 Snow
11:00 -2.4 -4.1 88   7 4 12.9 96.86   -4 Snow
12:00 -2.0 -3.8 87   8 4 8.0 96.82   -3 Snow
13:00 -1.8 -3.2 90     0 8.0 96.79     Snow
14:00 -1.7 -3.1 90   3 6 12.9 96.80   -4 Snow
15:00 -0.8 -2.1 91     0 4.8 96.83     Snow
16:00 -1.1 -2.3 92     0 1.6 96.87     Snow
17:00 -1.2 -2.2 93     0 2.4 96.90     Snow
18:00 -1.2 -2.3 92     0 3.7 96.96     Snow
19:00 -1.0 -2.0 93   25 6 4.8 97.00   -3 Snow
20:00 -2.3 -3.7 90   29 15 5.6 97.08   -7 Snow
21:00 -3.8 -5.3 89   28 19 11.3 97.15   -10 Snow
22:00 -4.7 -6.4 88   29 19 9.7 97.22   -11 Snow
23:00 -5.9 -7.5 88   28 24 9.7 97.33   -13 Snow

Notes on Data Quality.

Legend

  • E = Estimated
  • M = Missing
  • NA = Not Available*
  • [empty] = Indicates an unobserved value
Date modified: